Regional Weather Roundup
Issued by NWS Little Rock, AR

Home | Current Version | Previous Version | Graphics & Text | Print | Product List | Glossary On
Versions: 1 2 3 4 5 6 7 8 9 10 11 12 13 14 15 16 17 18 19 20 21 22 23 24 25 26 27 28 29 30 31 32 33 34 35 36 37 38 39 40 41 42 43 44 45 46 47 48 49 50
000
ASUS44 KLZK 311705
RWRLZK

WEATHER ROUNDUP FOR ARKANSAS
NATIONAL WEATHER SERVICE LITTLE ROCK AR
1200 PM CDT THU JUL 31 2014

NOTE: "FAIR" INDICATES FEW OR NO CLOUDS BELOW 12,000 FEET WITH NO
SIGNIFICANT WEATHER AND/OR OBSTRUCTIONS TO VISIBILITY.

ARZ001-003-010-029-311800-
NORTHWEST ARKANSAS

CITY           SKY/WX    TMP DP  RH WIND       PRES   REMARKS
FAYETTEVILLE   LGT RAIN  66  65  96 S7        30.12R FOG
FORT SMITH     CLOUDY    71  66  84 VRB6      30.09S
HARRISON       CLOUDY    67  66  97 E5        30.12S
BENTONVILLE    PTSUNNY   72  64  78 SE5       30.12S
ROGERS         CLOUDY    69  65  86 NE3       30.12S
SILOAM SPGS    CLOUDY    70  63  78 CALM      30.12S
HIGHFILL       CLOUDY    68  67  96 S5        30.11S FOG
SPRINGDALE     CLOUDY    70  66  88 CALM      30.13S
$$

ARZ004-005-016-311800-
NORTH CENTRAL ARKANSAS

CITY           SKY/WX    TMP DP  RH WIND       PRES   REMARKS
BATESVILLE     CLOUDY    70  66  88 S5        30.12F
FLIPPIN        CLOUDY    66  64  94 S5        30.12F
MTN HOME       CLOUDY    68  66  93 S5        30.11S
$$

ARZ040-041-311800-
WEST CENTRAL ARKANSAS

CITY           SKY/WX    TMP DP  RH WIND       PRES   REMARKS
MENA           CLOUDY    68  66  94 CALM      30.11S
MOUNT IDA      LGT RAIN  69  64  84 VRB3      30.08S
$$

ARZ009-017-025-026-028-311800-
NORTHEAST ARKANSAS

CITY           SKY/WX    TMP DP  RH WIND       PRES   REMARKS
CORNING        FAIR      70  68  94 SW13      30.13S FOG
JONESBORO      CLOUDY    69  66  90 W8        30.12S
NEWPORT        LGT RAIN  71  69  93 SW7       30.13F
WALNUT RIDGE   CLOUDY    70  63  78 SW10      30.11F
BLYTHEVILLE    CLOUDY    75  67  76 W6        30.12S
NW BLYTHEVILLE CLOUDY    75  66  73 W5        30.11
$$

ARZ022-023-033-042-044-311800-
CENTRAL ARKANSAS

CITY           SKY/WX    TMP DP  RH WIND       PRES   REMARKS
LITTLE ROCK    CLOUDY    73  64  73 CALM      30.10F
N LITTLE ROCK  CLOUDY    71  68  89 E6        30.10F
JACKSONVILLE   PTSUNNY   72  67  84 E5        30.10F
SEARCY         CLOUDY    69  67  93 VRB3      30.13R
HOT SPRINGS    CLOUDY    71  65  81 E5        30.10S
RUSSELLVILLE   CLOUDY    70  65  84 E3        30.11S
CLINTON        CLOUDY    70  66  88 CALM      30.13S
$$

ARZ036-311800-
EAST ARKANSAS

CITY           SKY/WX    TMP DP  RH WIND       PRES   REMARKS
WEST MEMPHIS   CLOUDY    72  67  84 NW5       30.11S
$$

ARZ050-053-066-070-073-311800-
SOUTHWEST ARKANSAS

CITY           SKY/WX    TMP DP  RH WIND       PRES   REMARKS
ARKADELPHIA    LGT RAIN  71  69  93 CALM      30.09F FOG
CAMDEN         LGT RAIN  72  66  83 E6        30.08S
TEXARKANA      LGT RAIN  68  68 100 E3        30.06R FOG
EL DORADO      CLOUDY    72  66  81 E12       30.08S
DE QUEEN       LGT RAIN  68  66  93 E10       30.06S FOG
$$

ARZ056-057-069-311800-
SOUTHEAST ARKANSAS

CITY           SKY/WX    TMP DP  RH WIND       PRES   REMARKS
PINE BLUFF     CLOUDY    72  66  81 E5        30.10F
STUTTGART      CLOUDY    70  64  83 NE6       30.12S
MONTICELLO     CLOUDY    75  66  73 VRB5      30.09S

$$





USA.gov is the U.S. government's official web portal to all federal, state and local government web resources and services.